Weather History for Pompano Beach, FL

Change the Weather History Date:

Wednesday, July 25, 2012

  Actual Average Record
Temperature  
Mean Temperature 84 °F -  
Max Temperature 90 °F 92 °F 98 °F (1976)
Min Temperature 79 °F 74 °F 63 °F (1974)
Cooling Degree Days 20    
Growing Degree Days 34 (Base 50)    
Moisture  
Dew Point 75 °F    
Average Humidity 74    
Maximum Humidity 90    
Minimum Humidity 57    
Precipitation  
Precipitation 0.00 in - - ()
Sea Level Pressure  
Sea Level Pressure 30.05 in    
Wind  
Wind Speed 5 mph (South)    
Max Wind Speed 15 mph    
Max Gust Speed -    
Visibility 10 miles    
Events      
Averages and records for this station are not official NWS values.
T = Trace of Precipitation, MM = Missing Value Source: NWS Daily Summary

Daily Weather History Graph

Daily Weather History Graph

Search for Another Location

Airport:

Trip Planner

Search our weather history database for the weather conditions in past years. The results will help you decide how hot, cold, wet, or windy it might be!

Date:

Astronomy

Jul. 25, 2012 Rise Set
Actual Time 6:42 AM EDT 8:10 PM EDT
Civil Twilight 6:17 AM EDT 8:36 PM EDT
Nautical Twilight 5:47 AM EDT 9:06 PM EDT
Astronomical Twilight 5:16 AM EDT 9:37 PM EDT
Moon 12:57 PM EDT (7/25) No Moon Set
Length of Visible Light 14h 18m
Length of Day
13h 28m
Waxing Crescent, 42% of the Moon is Illuminated
Jul 25
Waxing Crescent
Jul 26
First Quarter
Aug 1
Full
Aug 9
Last Quarter
Aug 17
New

Hourly Weather History & Observations

Time (EDT) Temp. Heat Index Dew Point Humidity Pressure Visibility Wind Dir Wind Speed Gust Speed Precip Events Conditions
12:53 AM 82.0 °F 88.6 °F 75.0 °F 79% 30.07 in 10.0 mi SW 3.5 mph - N/A   Clear
1:53 AM 82.0 °F 88.6 °F 75.0 °F 79% 30.05 in 10.0 mi Calm Calm - N/A   Overcast
2:53 AM 81.0 °F 87.3 °F 75.9 °F 85% 30.04 in 10.0 mi Calm Calm - N/A   Mostly Cloudy
3:53 AM 80.1 °F 85.4 °F 75.9 °F 87% 30.04 in 10.0 mi South 3.5 mph - N/A   Mostly Cloudy
4:53 AM 80.1 °F 85.4 °F 75.9 °F 87% 30.04 in 10.0 mi SSW 3.5 mph - N/A   Clear
5:53 AM 79.0 °F - 75.9 °F 90% 30.04 in 10.0 mi Calm Calm - N/A   Partly Cloudy
6:53 AM 79.0 °F - 75.9 °F 90% 30.05 in 8.0 mi Calm Calm - N/A   Overcast
7:53 AM 80.1 °F 85.4 °F 75.9 °F 87% 30.06 in 9.0 mi SSW 3.5 mph - N/A   Partly Cloudy
8:53 AM 82.9 °F 90.8 °F 75.9 °F 79% 30.06 in 10.0 mi SSW 6.9 mph - N/A   Mostly Cloudy
9:53 AM 84.9 °F 93.3 °F 75.0 °F 72% 30.07 in 10.0 mi WSW 5.8 mph - N/A   Mostly Cloudy
10:53 AM 86.0 °F 93.8 °F 73.9 °F 67% 30.08 in 10.0 mi Variable 5.8 mph - N/A   Scattered Clouds
11:53 AM 87.1 °F 95.4 °F 73.9 °F 65% 30.07 in 10.0 mi Variable 3.5 mph - N/A   Scattered Clouds
12:53 PM 88.0 °F 96.5 °F 73.9 °F 63% 30.07 in 10.0 mi SE 8.1 mph - N/A   Clear
1:53 PM 88.0 °F 95.6 °F 73.0 °F 61% 30.06 in 10.0 mi SE 9.2 mph - N/A   Clear
2:53 PM 90.0 °F 97.9 °F 73.0 °F 57% 30.05 in 10.0 mi SE 10.4 mph - N/A   Clear
3:53 PM 88.0 °F 95.6 °F 73.0 °F 61% 30.03 in 10.0 mi SE 11.5 mph - N/A   Clear
4:53 PM 88.0 °F 95.6 °F 73.0 °F 61% 30.01 in 10.0 mi SSE 12.7 mph - N/A   Clear
5:53 PM 87.1 °F 94.5 °F 73.0 °F 63% 30.01 in 10.0 mi SSE 15.0 mph - N/A   Clear
6:53 PM 84.9 °F 92.1 °F 73.9 °F 69% 30.01 in 10.0 mi SSE 13.8 mph - N/A   Clear
7:53 PM 84.0 °F 91.9 °F 75.0 °F 74% 30.03 in 10.0 mi South 9.2 mph - N/A   Clear
8:53 PM 82.9 °F 90.2 °F 75.0 °F 77% 30.04 in 10.0 mi SSE 11.5 mph - N/A   Clear
9:53 PM 82.9 °F 90.2 °F 75.0 °F 77% 30.04 in 10.0 mi South 8.1 mph - N/A   Clear
10:53 PM 82.9 °F 90.8 °F 75.9 °F 79% 30.05 in 10.0 mi SSE 6.9 mph - N/A   Clear
11:53 PM 82.9 °F 90.2 °F 75.0 °F 77% 30.05 in 10.0 mi SW 6.9 mph - N/A   Clear